Back to catalog

WREN

LostScienceSSO
NORAD 39435·PAYLOAD·🇩🇪 Germany

Launched Nov 21, 2013 from Dombarovsky

Loading…

Next Passes (next 24 hours)

TLE

StaleSource: Space-Track

Epoch: Apr 9, 2014, 08:26 UTC

1 39435U 13066V   14099.35188471  .00002386  00000-0  27506-3 0  9992
2 39435  97.7868 174.0379 0056077 109.7041 251.0236 14.85489138 20584

Track WREN in real time with AllMySat

Download on the App Store